METAR Formatted Surface Weather Observation
Issued by NWS

Home | Current Version | Previous Version | Text Only | Print | Product List | Glossary On
Versions: 1 2 3 4 5 6 7 8 9 10 11 12 13 14 15 16 17 18 19 20 21 22 23 24 25 26 27 28 29 30 31 32 33 34 35 36 37 38 39 40 41 42 43 44 45 46 47 48 49 50
418
SAUS41 KAKQ 302357
MTRNFE
METAR KNFE 302356Z AUTO 18008KT 10SM FEW050 SCT070 26/23 A2992 RMK
AO2 RAE55 TSE19 SLP133 P0007 60053 T02560228 10300 20250 58027



USA.gov is the U.S. government's official web portal to all federal, state and local government web resources and services.